This is the latest recevied weather packets stored in our database for station/object K7NDG. If no packets are shown the sender has not sent any weather packets the latest 10 day(s).
| Time | Temp. | Humidity | Pressure | Rain* | Wind** | Luminosity | Snow |
|---|---|---|---|---|---|---|---|
| 1788577848 | 15° C | 86% | 1014.6 hPa | 4.83 mm | - | 0 W/m² | - |
| 1788577543 | 15° C | 86% | 1014.7 hPa | 3.05 mm | - | 0 W/m² | - |
| 1788577238 | 15.56° C | 85% | 1014.9 hPa | 2.29 mm | - | 0 W/m² | - |
| 1788576933 | 15.56° C | 85% | 1014.8 hPa | 2.29 mm | - | 0 W/m² | - |
| 1788576629 | 15.56° C | 86% | 1014.9 hPa | 1.27 mm | - | 0 W/m² | - |
| 1788576324 | 15.56° C | 86% | 1014.6 hPa | 0.51 mm | - | 0 W/m² | - |
| 1788576020 | 15.56° C | 86% | 1014.8 hPa | 0 mm | - | 0 W/m² | - |
| 1788575715 | 15.56° C | 87% | 1014.6 hPa | 0 mm | - | 0 W/m² | - |
| 1788575409 | 16.11° C | 85% | 1014.2 hPa | 0 mm | - | 0 W/m² | - |
| 1788575103 | 16.11° C | 84% | 1014.2 hPa | 0 mm | - | 0 W/m² | - |
| 1788574799 | 16.11° C | 83% | 1014.1 hPa | 0 mm | - | 2 W/m² | - |
| 1788574498 | 16.11° C | 83% | 1014.3 hPa | 0 mm | - | 2 W/m² | - |
| 1788574193 | 16.67° C | 82% | 1013.9 hPa | 2.29 mm | - | 2 W/m² | - |
| 1788573888 | 16.67° C | 79% | 1013.9 hPa | 2.29 mm | - | 4 W/m² | - |
| 1788573588 | 16.67° C | 79% | 1014.2 hPa | 0 mm | - | 2 W/m² | - |
| 1788573286 | 16.67° C | 78% | 1013.9 hPa | 0 mm | - | 5 W/m² | - |
| 1788572985 | 17.22° C | 78% | 1013.6 hPa | 0 mm | - | 9 W/m² | - |
| 1788572681 | 17.22° C | 74% | 1013.7 hPa | 1.27 mm | - | 12 W/m² | - |
| 1788572376 | 17.78° C | 73% | 1013.9 hPa | 3.56 mm | - | 12 W/m² | - |
| 1788572073 | 17.78° C | 71% | 1013.8 hPa | 3.05 mm | - | 11 W/m² | - |
| 1788571767 | 18.33° C | 68% | 1013.9 hPa | 0 mm | - | 10 W/m² | - |
| 1788571463 | 18.89° C | 65% | 1013.7 hPa | 0 mm | - | 11 W/m² | - |
| 1788571160 | 19.44° C | 62% | 1013.5 hPa | 0 mm | - | 16 W/m² | - |
| 1788570855 | 20° C | 62% | 1013.2 hPa | 0 mm | - | 29 W/m² | - |
| 1788570550 | 20° C | 61% | 1013.2 hPa | 0 mm | - | 33 W/m² | - |
* Rain latest hour (hover to see other rain measurements)
** Current wind speed in m/s (hover to see current wind gust speed)